Showing default

ORBCOMM FM 20, 25416

Orbit data source: Space-Track

ORBCOMM FM 20, 25416 is a payload satellite owned by Orbcomm (US) in LEO that was launched on Sun, 02 Aug 1998 UTC via a PEGASUS XL/HAPS launch vehicle from the Pegasus Launch, Eastern Range Air Space (ERAS). Payload-class satellites include a variety of spacecraft equipped with specific instruments for various scientific and technological missions. These include communications satellites like Starlink; space stations such as the ISS; scientific satellites like the Hubble; Earth observation satellites from companies like Planet Labs, Umbra, and HawkEye 360; GPS; miniature CubeSats for education and research; and military/defense satellites.

Loading next visibility...
Identifier
25416, 1998-046D
Orbit
LEO
Country
Flag of USUS / ORB
Related business
Manufacturer
OSC-Germantown
Mission
Operational Commercial Communications
Bus & Motor
MICROSTAR, Unknown motor
Mass
42 kg wet, 42 kg dry
Launch date (UTC)
1998-08-02 (27 years ago)
Launch vehicle
PEGASUS XL/HAPS
Launch site
Pegasus Launch, Eastern Range Air Space (ERAS)
Object type
Payload
Rocket body
Debris
Shape & HBR
Cyl + 2 Pan, 4.2 m
Radar Cross Section
1.484 m², Medium (>0.1 m² and < 1m²)

Expand to show TLE details & history
Last TLE update: 2 days ago

TLE from 2 days ago
0 ORBCOMM FM 20
1 25416U 98046D   25293.09076241  .00001604  00000-0  57795-3 0  9992
2 25416  44.9946 309.6513 0002778 255.3218 104.7322 14.37491682422230
Epoch: 2025-10-20T02:10Z
TLE epoch observation values (Epoch: 2025-10-20T02:10:41.872Z)
Latitude
-0.00001°
Longitude
-111.82124°
Altitude
767.301 km
Speed
7.472 km/s
True Right ascension
20h 38m 36s
True Declination
0° 00' 00"
Sunlit
Object was in daylight at epoch
Visualization orbit readout
Latitude
Unknown
Longitude
Unknown
Altitude
Unknown
Speed
Unknown
Apparent Right ascension
Unknown
Apparent Declination
Unknown
Sunlit
N/A
Visualization observer readout
Local Sidereal Time
09:59:48
Azimuth
Unknown
Elevation
Unknown
Doppler factor
Unknown
Orbital elements
Apogee altitude
770.33 km
Perigee altitude
766.359 km
Semi-major axis
7,146.481 km
Eccentricity
0.00028
Inclination
44.9946°
RAAN
309.6513°
Arg. of periapsis
255.3218°
True anomaly
104.76298°
Mean anomaly
104.7322°
Eccentric anomaly
104.74759°
Mean motion
3.59257 °/min
Orbital period
100.21 mins
BSTAR
0.00057795
Loading maneuver chart data...
Computing Atmospheric mass density...

Documentation

Showing up to 5 results
|